Вернуться в каталог

FENGYUN 1C DEB

АктивенSSO
NORAD 30540·DEBRIS·🇨🇳 China

Запущен May 10, 1999 с Taiyuan Satellite Launch Center

Loading…

Ближайшие Пролёты (ближайшие 24 часа)

TLE

СвежийSource: Space-Track

Эпоха: Sep 13, 2026, 14:03 UTC

1 30540U 99025AKE 26256.58593924  .00002679  00000-0  94700-3 0  9990
2 30540  98.8891  17.1780 0049635 335.4493 152.4328 14.34824833 12243

Отслеживайте FENGYUN 1C DEB в реальном времени с AllMySat

Download on the App Store